COSMOS 2251 DEB

Satellite information

Favourite Embed

Satellite Type and Status

DEBRISIN ORBIT

Key statistics

Satellite COSMOS 2251 DEB at a glance.

Uptime

11817

Days in orbit

Revolutions

≈ 14.4

Per day

Orbit

LEO

Low Earth Orbit

Inclination

74.0

Latest

Satellite identification and parameters

Extended collection of information and parameters for COSMOS 2251 DEB.

Object identification

Identified? True

Debris? True

Object name: COSMOS 2251 DEB

International designator: 1993-036AWD

Object number (NORAD): 35987

Object ID (CCSDS): 35987

Country: COMMONWEALTH OF INDEPENDENT STATES (CIS)

Current information (Y/N): Y

RCS size: SMALL

Orbital parameters

Period: 99.82 minutes

Inclination: 73.9988 deg

SMA: 7128.071 km

Apoapsis: 784.88 km

Periapsis: 714.993 km

RAAN: 70.7224 deg

Eccentricy: 0.00490224

Argument of periapsis: 209.9395 deg

Mean anomaly: 149.8956 deg

Mean motion: 14.42595959 rev/day

Mean motion (dot): 0.00007215 rev/day2

B* drag term: 0.0021472966 1/REarth

Two-line elements (TLE)

Creation date: Oct. 18, 2025, 2:17 a.m.

Reference frame: TEME

Reference center: EARTH

Epoch: Oct. 17, 2025, 7:14 p.m. UTC

TLE line 0: 0 COSMOS 2251 DEB

TLE line 1: 1 35987U 93036AWD 25290.80200187 .00007215 00000-0 21473-2 0 9991

TLE line 2: 2 35987 73.9988 70.7224 0049022 209.9395 149.8956 14.42595959602580

Live tracking on map

Real-time ground track for satellite COSMOS 2251 DEB.

In-orbit conjunctions

A list of the most updated potential collisions computed for object COSMOS 2251 DEB.

Target Orbit TCA Probability of collision Miss distance Type
NOAA 17 DEB SSO 2025-06-15 15:25:42 0.0001215797 224.0 (m) DEBRIS
RITE TARGET 1 SSO 2025-01-30 08:44:38 0.0005020994 298.0 (m) PAYLOAD

Associated space launch

Military communications satellite. Destroyed in a collision with Iridium 33.

COSMOS 2251 DEB was lifted into orbit during the mission ‘Kosmos-3M | Strela-2M 51’, on board a Kosmos-3M space rocket.

The launch took place on June 16, 1993, 4:17 a.m. from 132/1 (132L).

For more information about the launch, click the button.

Launch to space Kosmos-3M | Strela-2M 51
Kosmos-3M | Strela-2M 51

Agency: N/A

Status: Launch Successful

Launch date: June 16, 1993, 4:17 a.m. UTC

Rocket: Kosmos-3M

Launch pad: 132/1 (132L)

Location: Plesetsk Cosmodrome, Russian Federation

...

Latest news about this satellite

There are no fresh news available about this satellite. Check back as we update our databases every day.


Newsletter sign-up

Weekly statistics, charts and insights to help you stay on top of the space industry.